AFR1091 EGLL-LFPG

Flight info

Callsign AFR1091
Flight time 0h 42m
Altitude 25000
Route MODMI M185 MID UL612 BOGNA DCT HARDY UM605 BIBAX
Aircraft A320/M-SDE3FGHIRWY/LB1

Departure

Time 2026-05-06 10:27
Airport London Heathrow Airport (EGLL)

Arrival

Time 2026-05-06 11:10
Airport Charles de Gaulle International Airport (LFPG)
Time Latitude Longitude Altitude Speed Heading
2026-05-06 10:02 51.46984 -0.47720 91 ft 0 kts 90°
2026-05-06 10:16 51.46984 -0.47724 91 ft 1 kts 90°
2026-05-06 10:17 51.46984 -0.47752 90 ft 3 kts 96°
2026-05-06 10:17 51.46987 -0.47784 90 ft 3 kts 104°
2026-05-06 10:17 51.46993 -0.47815 93 ft 3 kts 114°
2026-05-06 10:17 51.47002 -0.47843 91 ft 3 kts 129°
2026-05-06 10:18 51.47016 -0.47865 90 ft 3 kts 160°
2026-05-06 10:18 51.47026 -0.47869 90 ft 0 kts 181°
2026-05-06 10:20 51.46995 -0.47870 90 ft 8 kts 181°
2026-05-06 10:20 51.46922 -0.47870 90 ft 12 kts 180°
2026-05-06 10:20 51.46836 -0.47870 89 ft 12 kts 180°
2026-05-06 10:21 51.46761 -0.47883 90 ft 10 kts 208°
2026-05-06 10:21 51.46742 -0.47977 89 ft 9 kts 271°
2026-05-06 10:21 51.46744 -0.48066 90 ft 7 kts 271°
2026-05-06 10:21 51.46744 -0.48118 91 ft 0 kts 270°
2026-05-06 10:23 51.46744 -0.48157 93 ft 8 kts 270°
2026-05-06 10:23 51.46744 -0.48275 94 ft 13 kts 269°
2026-05-06 10:23 51.46741 -0.48457 93 ft 19 kts 270°
2026-05-06 10:23 51.46739 -0.48638 92 ft 14 kts 268°
2026-05-06 10:24 51.46699 -0.48744 93 ft 10 kts 204°
2026-05-06 10:24 51.46628 -0.48752 93 ft 7 kts 186°
2026-05-06 10:24 51.46602 -0.48763 93 ft 0 kts 199°
2026-05-06 10:25 51.46600 -0.48765 92 ft 3 kts 199°
2026-05-06 10:26 51.46531 -0.48782 94 ft 12 kts 169°
2026-05-06 10:26 51.46483 -0.48705 94 ft 9 kts 109°
2026-05-06 10:26 51.46477 -0.48588 93 ft 20 kts 89°
2026-05-06 10:26 51.46483 -0.47919 91 ft 97 kts 89°
2026-05-06 10:27 51.46509 -0.46530 144 ft 146 kts 84°
2026-05-06 10:27 51.46511 -0.44742 399 ft 178 kts 94°
2026-05-06 10:27 51.46080 -0.42576 1118 ft 185 kts 102°
2026-05-06 10:27 51.45699 -0.40520 1963 ft 188 kts 102°
2026-05-06 10:28 51.45174 -0.38547 2498 ft 207 kts 128°
2026-05-06 10:28 51.43889 -0.37275 3119 ft 227 kts 161°
2026-05-06 10:28 51.42320 -0.36497 3731 ft 245 kts 161°
2026-05-06 10:28 51.40562 -0.35778 3970 ft 278 kts 175°
2026-05-06 10:29 51.38661 -0.36279 4229 ft 278 kts 206°
2026-05-06 10:29 51.36955 -0.37768 5018 ft 284 kts 212°
2026-05-06 10:29 51.36013 -0.38644 5545 ft 285 kts 212°
2026-05-06 10:29 51.33969 -0.40381 6811 ft 285 kts 210°
2026-05-06 10:30 51.32220 -0.41777 7797 ft 286 kts 208°
2026-05-06 10:30 51.30416 -0.43167 8762 ft 290 kts 208°
2026-05-06 10:30 51.28572 -0.44558 9668 ft 295 kts 207°
2026-05-06 10:30 51.26618 -0.45711 10397 ft 308 kts 191°
2026-05-06 10:31 51.24356 -0.45630 10936 ft 325 kts 168°
2026-05-06 10:31 51.22106 -0.44812 11480 ft 339 kts 167°
2026-05-06 10:31 51.19789 -0.43916 12294 ft 342 kts 166°
2026-05-06 10:31 51.17484 -0.43006 13204 ft 344 kts 167°
2026-05-06 10:32 51.15130 -0.42079 13993 ft 348 kts 167°
2026-05-06 10:32 51.12772 -0.41161 14688 ft 352 kts 168°
2026-05-06 10:32 51.10377 -0.40244 15399 ft 355 kts 167°
2026-05-06 10:32 51.07968 -0.39330 16110 ft 358 kts 168°
2026-05-06 10:33 51.05537 -0.38413 16797 ft 362 kts 168°
2026-05-06 10:33 51.03071 -0.37487 17486 ft 366 kts 168°
2026-05-06 10:33 51.00599 -0.36563 18214 ft 367 kts 169°
2026-05-06 10:33 50.98102 -0.35631 18799 ft 371 kts 168°
2026-05-06 10:34 50.95582 -0.34626 19418 ft 374 kts 162°
2026-05-06 10:34 50.93273 -0.32729 20066 ft 378 kts 143°
2026-05-06 10:34 50.91397 -0.29797 20658 ft 381 kts 132°
2026-05-06 10:34 50.89615 -0.26565 21186 ft 387 kts 132°
2026-05-06 10:35 50.87834 -0.23336 21720 ft 391 kts 132°
2026-05-06 10:35 50.86040 -0.20095 22310 ft 393 kts 133°
2026-05-06 10:35 50.84228 -0.16828 22829 ft 397 kts 133°
2026-05-06 10:35 50.82397 -0.13531 23408 ft 399 kts 133°
2026-05-06 10:36 50.80554 -0.10217 23911 ft 401 kts 133°
2026-05-06 10:36 50.78707 -0.06900 24363 ft 404 kts 133°
2026-05-06 10:36 50.76841 -0.03560 24795 ft 406 kts 133°
2026-05-06 10:36 50.74992 -0.00257 24949 ft 404 kts 133°
2026-05-06 10:37 50.73118 0.03092 24982 ft 409 kts 133°
2026-05-06 10:37 50.71198 0.06512 24983 ft 423 kts 133°
2026-05-06 10:37 50.69213 0.10044 24984 ft 437 kts 133°
2026-05-06 10:37 50.67165 0.13680 24984 ft 449 kts 134°
2026-05-06 10:38 50.65076 0.17392 24984 ft 455 kts 133°
2026-05-06 10:38 50.62982 0.21115 24980 ft 456 kts 133°
2026-05-06 10:38 50.60850 0.24894 24981 ft 466 kts 133°
2026-05-06 10:38 50.58671 0.28746 24984 ft 475 kts 133°
2026-05-06 10:39 50.56451 0.32664 24981 ft 484 kts 133°
2026-05-06 10:39 50.54201 0.36629 24980 ft 487 kts 133°
2026-05-06 10:39 50.51947 0.40600 24980 ft 487 kts 133°
2026-05-06 10:39 50.49686 0.44573 24981 ft 488 kts 133°
2026-05-06 10:40 50.47412 0.48510 24980 ft 487 kts 136°
2026-05-06 10:40 50.44850 0.51979 24981 ft 486 kts 142°
2026-05-06 10:40 50.42219 0.55316 24980 ft 486 kts 142°
2026-05-06 10:40 50.39578 0.58644 24980 ft 487 kts 142°
2026-05-06 10:41 50.36937 0.61952 24980 ft 486 kts 142°
2026-05-06 10:41 50.34291 0.65256 24981 ft 487 kts 142°
2026-05-06 10:41 50.31650 0.68550 24980 ft 485 kts 142°
2026-05-06 10:41 50.29009 0.71847 24980 ft 487 kts 142°
2026-05-06 10:42 50.26365 0.75160 24974 ft 486 kts 142°
2026-05-06 10:42 50.23725 0.78471 24975 ft 488 kts 142°
2026-05-06 10:42 50.21081 0.81778 24975 ft 486 kts 142°
2026-05-06 10:42 50.18434 0.85078 24974 ft 488 kts 142°
2026-05-06 10:43 50.15780 0.88382 24975 ft 487 kts 141°
2026-05-06 10:43 50.13131 0.91670 24975 ft 487 kts 141°
2026-05-06 10:43 50.10491 0.94937 24972 ft 484 kts 141°
2026-05-06 10:44 50.05112 1.01221 24969 ft 484 kts 151°
2026-05-06 10:44 50.02102 1.03568 24970 ft 484 kts 154°
2026-05-06 10:44 49.99080 1.05854 24969 ft 484 kts 154°
2026-05-06 10:44 49.96040 1.08136 24958 ft 485 kts 154°
2026-05-06 10:45 49.93002 1.10416 24959 ft 486 kts 154°
2026-05-06 10:45 49.89964 1.12699 24958 ft 486 kts 154°
2026-05-06 10:45 49.86923 1.14982 24844 ft 486 kts 154°
2026-05-06 10:45 49.83889 1.17253 23799 ft 484 kts 154°
2026-05-06 10:46 49.80848 1.19520 22715 ft 482 kts 154°
2026-05-06 10:46 49.77889 1.21722 22463 ft 462 kts 154°
2026-05-06 10:46 49.75040 1.23838 22213 ft 445 kts 154°
2026-05-06 10:46 49.72307 1.25867 21976 ft 429 kts 154°
2026-05-06 10:47 49.69651 1.27843 21550 ft 419 kts 153°
2026-05-06 10:47 49.67049 1.29784 21125 ft 410 kts 153°
2026-05-06 10:47 49.64502 1.31678 20723 ft 402 kts 154°
2026-05-06 10:47 49.62005 1.33525 20314 ft 395 kts 154°
2026-05-06 10:48 49.59542 1.35341 19924 ft 389 kts 154°
2026-05-06 10:48 49.57127 1.37123 19522 ft 383 kts 154°
2026-05-06 10:48 49.54739 1.38885 19119 ft 378 kts 154°
2026-05-06 10:48 49.52384 1.40626 18709 ft 373 kts 154°
2026-05-06 10:49 49.50060 1.42344 18310 ft 369 kts 154°
2026-05-06 10:49 49.47720 1.44065 17868 ft 366 kts 154°
2026-05-06 10:49 49.45434 1.45738 17390 ft 362 kts 154°
2026-05-06 10:49 49.43166 1.47399 16939 ft 359 kts 154°
2026-05-06 10:50 49.40919 1.49043 16478 ft 357 kts 154°
2026-05-06 10:50 49.38654 1.50702 16004 ft 355 kts 154°
2026-05-06 10:50 49.36427 1.52335 15545 ft 353 kts 154°
2026-05-06 10:50 49.34259 1.54068 15092 ft 352 kts 146°
2026-05-06 10:51 49.32383 1.56468 14651 ft 349 kts 132°
2026-05-06 10:51 49.30942 1.59477 14205 ft 346 kts 118°
2026-05-06 10:51 49.30012 1.62807 13762 ft 343 kts 105°
2026-05-06 10:51 49.29591 1.66423 13245 ft 340 kts 92°
2026-05-06 10:52 49.29489 1.68814 12908 ft 339 kts 92°
2026-05-06 10:52 49.29330 1.72406 12404 ft 337 kts 92°
2026-05-06 10:52 49.29066 1.76006 11991 ft 333 kts 99°
2026-05-06 10:52 49.28469 1.79334 11913 ft 322 kts 105°
2026-05-06 10:53 49.27809 1.82536 11914 ft 307 kts 106°
2026-05-06 10:53 49.27181 1.85642 11920 ft 301 kts 103°
2026-05-06 10:53 49.26968 1.88798 11920 ft 298 kts 89°
2026-05-06 10:53 49.26921 1.91975 11920 ft 299 kts 89°
2026-05-06 10:54 49.26881 1.95151 11710 ft 297 kts 89°
2026-05-06 10:54 49.26843 1.98302 11454 ft 295 kts 90°
2026-05-06 10:54 49.26802 2.01447 11201 ft 293 kts 89°
2026-05-06 10:54 49.26758 2.04536 10989 ft 290 kts 89°
2026-05-06 10:55 49.26710 2.07624 10898 ft 290 kts 89°
2026-05-06 10:55 49.26658 2.10756 10921 ft 290 kts 91°
2026-05-06 10:55 49.26610 2.13860 10908 ft 291 kts 89°
2026-05-06 10:55 49.26560 2.17009 10919 ft 292 kts 90°
2026-05-06 10:56 49.26508 2.20050 10902 ft 292 kts 90°
2026-05-06 10:56 49.26457 2.23132 10921 ft 297 kts 91°
2026-05-06 10:56 49.26402 2.26335 10919 ft 299 kts 90°
2026-05-06 10:56 49.26345 2.29510 10919 ft 299 kts 91°
2026-05-06 10:57 49.26286 2.32674 10919 ft 297 kts 90°
2026-05-06 10:57 49.26227 2.35847 10918 ft 298 kts 90°
2026-05-06 10:57 49.26168 2.39026 10918 ft 297 kts 91°
2026-05-06 10:57 49.26057 2.42203 10917 ft 297 kts 93°
2026-05-06 10:58 49.25896 2.45386 10919 ft 299 kts 94°
2026-05-06 10:58 49.25719 2.48553 10918 ft 298 kts 94°
2026-05-06 10:58 49.25518 2.51720 10913 ft 299 kts 98°
2026-05-06 10:58 49.25136 2.54829 10904 ft 297 kts 100°
2026-05-06 10:59 49.24760 2.57959 10910 ft 298 kts 99°
2026-05-06 10:59 49.24407 2.60957 10910 ft 300 kts 99°
2026-05-06 10:59 49.24025 2.64217 10824 ft 299 kts 99°
2026-05-06 10:59 49.23659 2.67332 10578 ft 298 kts 100°
2026-05-06 11:00 49.23281 2.70520 10335 ft 300 kts 101°
2026-05-06 11:00 49.22907 2.73672 10087 ft 303 kts 101°
2026-05-06 11:00 49.22535 2.76810 9838 ft 298 kts 101°
2026-05-06 11:00 49.22167 2.79914 9466 ft 296 kts 101°
2026-05-06 11:01 49.21795 2.83013 9046 ft 295 kts 100°
2026-05-06 11:01 49.21426 2.86083 8619 ft 295 kts 99°
2026-05-06 11:01 49.21056 2.89160 8216 ft 294 kts 99°
2026-05-06 11:01 49.20584 2.92099 7920 ft 290 kts 111°
2026-05-06 11:02 49.19497 2.94709 7411 ft 295 kts 135°
2026-05-06 11:02 49.17851 2.96499 7078 ft 291 kts 155°
2026-05-06 11:02 49.15899 2.97253 6649 ft 290 kts 176°
2026-05-06 11:02 49.13890 2.97459 6316 ft 287 kts 176°
2026-05-06 11:03 49.11932 2.97661 6146 ft 277 kts 176°
2026-05-06 11:03 49.10060 2.97856 6011 ft 265 kts 176°
2026-05-06 11:03 49.08254 2.98052 5886 ft 255 kts 176°
2026-05-06 11:03 49.06528 2.97986 5769 ft 242 kts 199°
2026-05-06 11:04 49.05187 2.96644 5618 ft 228 kts 236°
2026-05-06 11:04 49.04634 2.94420 5356 ft 217 kts 270°
2026-05-06 11:04 49.04519 2.92051 5100 ft 221 kts 270°
2026-05-06 11:04 49.04398 2.89592 4803 ft 220 kts 270°
2026-05-06 11:05 49.04285 2.87353 4513 ft 220 kts 270°
2026-05-06 11:05 49.04168 2.85039 4212 ft 219 kts 270°
2026-05-06 11:05 49.04050 2.82727 3910 ft 219 kts 270°
2026-05-06 11:05 49.03932 2.80412 3627 ft 214 kts 270°
2026-05-06 11:06 49.03817 2.78216 3353 ft 197 kts 270°
2026-05-06 11:06 49.03711 2.76151 3066 ft 184 kts 271°
2026-05-06 11:06 49.03615 2.74304 2841 ft 172 kts 271°
2026-05-06 11:06 49.03523 2.72527 2598 ft 160 kts 272°
2026-05-06 11:07 49.03466 2.71411 2454 ft 153 kts 272°
2026-05-06 11:07 49.03356 2.69315 2186 ft 138 kts 273°
2026-05-06 11:07 49.03283 2.67868 2000 ft 137 kts 272°
2026-05-06 11:07 49.03208 2.66416 1809 ft 138 kts 272°
2026-05-06 11:08 49.03155 2.65403 1685 ft 137 kts 271°
2026-05-06 11:08 49.03079 2.63956 1479 ft 137 kts 269°
2026-05-06 11:08 49.03000 2.62440 1274 ft 137 kts 269°
2026-05-06 11:08 49.02924 2.61002 1086 ft 137 kts 271°
2026-05-06 11:09 49.02840 2.59554 883 ft 136 kts 269°
2026-05-06 11:09 49.02775 2.58122 685 ft 136 kts 269°
2026-05-06 11:09 49.02692 2.56674 504 ft 137 kts 270°
2026-05-06 11:09 49.02626 2.55284 357 ft 118 kts 268°
2026-05-06 11:10 49.02580 2.54345 360 ft 65 kts 268°
2026-05-06 11:10 49.02542 2.53785 358 ft 49 kts 264°
2026-05-06 11:10 49.02465 2.53382 360 ft 36 kts 238°
2026-05-06 11:10 49.02335 2.53093 360 ft 32 kts 230°
2026-05-06 11:11 49.02142 2.53017 359 ft 30 kts 178°
2026-05-06 11:11 49.01918 2.53038 355 ft 29 kts 175°
2026-05-06 11:11 49.01847 2.53169 355 ft 18 kts 87°
2026-05-06 11:11 49.01858 2.53370 355 ft 21 kts 83°
2026-05-06 11:12 49.01829 2.53559 359 ft 18 kts 163°
2026-05-06 11:12 49.01785 2.53683 357 ft 14 kts 88°
2026-05-06 11:12 49.01794 2.53843 360 ft 19 kts 86°
2026-05-06 11:12 49.01807 2.54062 355 ft 22 kts 86°
2026-05-06 11:13 49.01823 2.54317 355 ft 25 kts 86°
2026-05-06 11:13 49.01836 2.54599 355 ft 28 kts 83°
2026-05-06 11:13 49.01849 2.54904 355 ft 30 kts 88°
2026-05-06 11:13 49.01825 2.55130 358 ft 15 kts 175°
2026-05-06 11:14 49.01729 2.55146 355 ft 13 kts 175°
2026-05-06 11:14 49.01605 2.55156 355 ft 22 kts 175°
2026-05-06 11:14 49.01443 2.55183 355 ft 25 kts 170°
2026-05-06 11:14 49.01276 2.55203 356 ft 24 kts 202°
2026-05-06 11:15 49.01118 2.55174 359 ft 24 kts 158°
2026-05-06 11:15 49.00946 2.55254 360 ft 26 kts 162°
2026-05-06 11:15 49.00775 2.55330 360 ft 22 kts 161°
2026-05-06 11:15 49.00732 2.55507 355 ft 19 kts 82°
2026-05-06 11:16 49.00749 2.55744 355 ft 22 kts 83°
2026-05-06 11:16 49.00771 2.55967 355 ft 25 kts 81°
2026-05-06 11:16 49.00796 2.56239 359 ft 27 kts 81°
2026-05-06 11:16 49.00823 2.56535 362 ft 29 kts 85°
2026-05-06 11:17 49.00835 2.56759 355 ft 30 kts 85°
2026-05-06 11:17 49.00860 2.57188 355 ft 33 kts 86°
2026-05-06 11:17 49.00874 2.57508 355 ft 23 kts 101°
2026-05-06 11:17 49.00794 2.57594 359 ft 13 kts 119°
2026-05-06 11:18 49.00795 2.57720 360 ft 12 kts 84°
2026-05-06 11:18 49.00804 2.57878 355 ft 17 kts 84°
2026-05-06 11:18 49.00811 2.58049 355 ft 12 kts 100°
2026-05-06 11:18 49.00753 2.58124 356 ft 11 kts 170°
2026-05-06 11:19 49.00698 2.58105 358 ft 7 kts 265°
2026-05-06 11:19 49.00699 2.58083 356 ft 1 kts 272°
2026-05-06 11:19 49.00693 2.58051 361 ft 3 kts 253°
2026-05-06 11:19 49.00687 2.58023 359 ft 2 kts 253°
2026-05-06 11:20 49.00686 2.58018 357 ft 2 kts 252°
2026-05-06 11:20 49.00684 2.58008 357 ft 0 kts 252°